Location: Crèvecoeur
(50.5500°N, 3.4333°E)
Time: 23:42:24
(UTC+00:00)

Daily predictions for brighter satellites

Satellite Brightness Start Highest point End
(mag) Time Altitude Azimuth Time Altitude Azimuth Time Altitude Azimuth
SL-08 R/B 4.2 17:43:08 10° N 17:47:59 59° WNW 17:52:50 10° SSW
Cosmos 1697 Rocket 3.0 17:42:32 10° SW 17:48:09 73° WNW 17:53:49 10° NNE
Okean 2 3.7 17:44:44 10° NNW 17:48:54 75° W 17:53:01 10° S
SL-14 R/B 3.3 17:49:04 10° N 17:53:02 64° ENE 17:57:00 10° SSE
MOS 1-B 4.4 17:49:21 10° SSE 17:55:04 63° ENE 18:00:49 10° N
Cosmos 1733 3.1 17:51:56 10° S 17:55:38 68° E 17:59:22 10° NNE
Cosmos 2360 Rocket 3.9 17:55:17 10° ESE 17:56:08 10° E 17:56:58 10° E
MINOTAUR 4 R/B 3.9 17:55:33 10° NNE 17:59:03 83° ESE 18:02:32 10° SSW
Cosmos 1809 Rocket 4.5 17:53:10 10° S 17:59:05 59° E 18:05:05 10° NNE
Cosmos 1766 3.8 17:58:26 10° SSE 18:02:03 36° E 18:05:42 10° NNE
Cosmos 1674 Rocket 3.5 17:57:51 10° N 18:02:15 67° ENE 18:06:40 10° SSE
Meteor 2-10 4.2 17:58:03 10° S 18:03:35 63° E 18:08:58 10° NNE
Cosmos 1025 Rocket 4.4 18:01:29 10° NNE 18:04:40 20° ENE 18:07:50 10° ESE
ATLAS 2AS CENTAUR R/B 4.2 17:59:41 10° WNW 18:06:12 30° N 18:12:25 10° NE
YAOGAN 1 2.7 18:02:56 10° SSE 18:07:09 54° ENE 18:11:23 10° N
Cosmos 968 Rocket 4.2 18:04:03 10° SSE 18:08:36 31° ESE 18:13:08 10° NE
Okean O Rocket 1.8 18:06:48 10° SE 18:11:00 50° ENE 18:15:17 10° N
Cosmos 2084 3.9 18:08:49 10° WSW 18:12:33 53° NW 18:16:20 10° NE
IRIDIUM 106 4.5 18:07:40 10° SSE 18:12:42 52° E 18:17:46 10° NNE
Lacrosse 4 Rocket 3.0 18:11:14 10° SE 18:13:19 14° ESE 18:13:56 13° E
SKYMED 2 3.6 18:09:01 10° NNE 18:13:24 85° WNW 18:17:44 10° SSW
Meteor 2-5 Rocket 4.1 18:09:12 10° N 18:14:28 43° ENE 18:19:42 10° SE
Nadezhda 4 Rocket 4.1 18:09:54 10° SSE 18:16:02 55° E 18:22:10 10° NNE
CSL-04 Rocket 4.5 18:13:50 10° ESE 18:18:28 31° ENE 18:23:10 10° N
Cosmos 2285 Rocket 4.0 18:14:32 10° NNW 18:20:56 79° ENE 18:27:19 10° SSE
PSLV R/B 4.3 18:19:41 10° S 18:23:19 58° WSW 18:26:57 10° NNW
USA 186 3.2 18:22:42 17° ESE 18:24:06 23° ENE 18:26:49 10° NNE
Cosmos 1726 2.0 18:20:30 10° S 18:24:08 82° E 18:27:49 10° NNE
Cosmos 2322 Rocket 3.1 18:19:46 10° SSE 18:24:26 27° ESE 18:29:07 10° NE
Cosmos 1378 Rocket 3.9 18:24:27 10° NNW 18:28:49 69° W 18:33:08 10° S
Cosmos 1470 3.5 18:25:31 10° SSE 18:28:54 30° E 18:32:16 10° NNE
CZ-4B R/B 3.3 18:24:08 10° SSE 18:29:33 85° WSW 18:35:06 10° NNW
Cosmos 1975 Rocket 3.7 18:25:54 10° N 18:29:56 33° ENE 18:33:08 14° SE
Cosmos 1980 Rocket 2.6 18:24:38 10° SW 18:30:15 68° WNW 18:35:52 10° NNE
ARGOS Delta rocket 3.9 18:25:21 10° NNE 18:30:40 80° E 18:35:40 10° S
Cosmos 2292 Rocket 3.7 18:34:10 10° S 18:39:01 51° E 18:42:45 10° NNE
Cosmos 1733 Rocket 4.4 18:38:59 10° SSW 18:43:14 44° WNW 18:47:31 10° N
USA 215 3.3 18:37:24 10° ENE 18:43:59 82° NNW 18:50:31 10° WSW
IRS-1C Rocket 4.5 18:43:42 18° SE 18:47:17 42° ENE 18:52:13 10° N
COBE Rocket 4.5 18:43:04 10° S 18:47:49 58° W 18:52:30 10° NNW
Cosmos 1844 Rocket 2.8 18:43:35 10° NNW 18:49:13 58° NE 18:52:58 21° SE
Cosmos 2278 3.8 18:47:56 10° SSW 18:53:38 78° WNW 18:59:21 10° NNE
Cosmos 1943 Rocket 4.5 18:53:52 10° N 18:54:23 10° NNE 18:54:53 10° NNE
SL-16 R/B 2.2 18:48:54 10° S 18:54:26 58° ESE 19:00:00 10° NE
Cosmos 1570 Rocket 4.2 18:49:15 10° NNW 18:54:30 72° WSW 18:59:42 10° SSE
Landsat 5 4.0 18:50:55 10° NNE 18:55:10 40° E 18:59:20 10° SSE
Cosmos 1092 Rocket 4.0 18:51:19 10° S 18:57:31 63° E 19:03:41 10° NNE
DMSP B5D1-3 4.4 18:55:26 10° NNE 19:00:36 87° ESE 19:05:43 10° SSW
Resurs 01 Rocket 2.8 19:01:19 24° ENE 19:01:22 24° ENE 19:04:57 10° N
SJ-6B 2.7 19:02:08 34° SE 19:03:32 61° ENE 19:07:18 10° N
Cosmos 2278 Rocket 3.8 18:59:58 10° N 19:03:56 19° NE 19:05:41 17° ENE
Cosmos 1437 Rocket 2.7 19:02:46 10° SSW 19:06:31 76° WNW 19:10:16 10° N
H-2A R/B 3.4 19:07:11 27° NE 19:07:11 27° NE 19:10:04 10° N
Gbstr 26 Del rocket 4.5 18:59:17 10° WSW 19:06:59 86° SSE 19:12:38 22° ENE
Cosmos 2263 Rocket 4.1 19:03:10 10° NW 19:08:00 29° WSW 19:12:49 10° SSW
Meteor 1-24 Rocket 3.6 19:04:34 10° NNW 19:09:54 85° W 19:15:17 10° S
Resurs 1-3 3.7 19:11:27 40° ESE 19:12:41 55° ENE 19:16:59 10° N
SL-4 R/B 3.9 19:11:34 10° W 19:15:22 27° SW 19:17:52 17° S
Cosmos 921 Rocket 4.4 19:12:05 10° N 19:15:35 25° NE 19:15:35 25° NE
MetOp-A 4.1 19:17:19 36° NE 19:17:19 36° NE 19:20:36 10° N
Cosmos 2084 Rocket 3.7 19:14:46 10° NW 19:18:31 53° SW 19:19:51 35° S
Okean-O 2.5 19:20:29 35° SSE 19:22:21 82° ENE 19:26:49 10° NNW
Cosmos 1844 3.6 19:18:10 10° NNW 19:23:46 84° ENE 19:26:12 35° SE
CZ-4 R/B 3.0 19:19:56 10° SSW 19:23:48 36° W 19:27:42 10° NNW
Cosmos 1486 Rocket 4.1 19:18:45 10° S 19:23:54 52° ESE 19:29:04 10° NNE
OBJECT-B 1.8 19:24:56 35° WNW 19:24:56 35° WNW 19:26:48 10° NNW
IGS 5A 3.4 19:24:37 36° S 19:26:16 84° WSW 19:30:26 10° NNW
DNEPR-1 R/B 3.9 19:23:15 10° SSW 19:27:54 58° ESE 19:30:36 29° ENE
Meteor 1-22 Rocket 4.3 19:23:31 10° SSW 19:28:57 77° WNW 19:34:41 10° N
S3M 4.3 19:22:59 10° N 19:28:58 45° ENE 19:30:10 41° ESE
Cosmos 773 Rocket 4.2 19:25:03 10° NNW 19:30:15 51° ENE 19:31:00 47° E
Meteor 1-21 Rocket 4.5 19:25:48 10° N 19:31:07 44° ENE 19:31:34 43° E
Cosmos 1300 Rocket 3.4 19:30:14 49° SSE 19:31:18 72° E 19:35:40 10° NNE
CSL-04 Debris 4.3 19:28:02 15° S 19:32:34 71° WSW 19:37:59 10° NNW
USA 81 4.3 19:33:14 10° N 19:38:30 67° W 19:43:22 12° S
Cosmos 2360 Rocket 2.1 19:33:24 10° SSW 19:38:57 61° ESE 19:44:32 10° NE
Cosmos 1782 Rocket 4.1 19:35:28 10° SSW 19:39:45 57° WNW 19:44:05 10° N
Cosmos 1025 Rocket 3.7 19:38:23 10° NNW 19:42:35 52° W 19:44:51 25° SSW
Cosmos 158 Rocket 4.3 19:40:27 10° NNW 19:44:48 46° NE 19:44:48 46° NE
Okean O Rocket 4.1 19:44:18 10° SW 19:47:38 21° W 19:50:59 10° NW
Cosmos 1417 Rocket 4.3 19:43:22 10° N 19:49:31 74° ENE 19:51:03 52° SSE
Cosmos 968 Rocket 4.5 19:45:09 10° SW 19:50:13 47° WNW 19:55:16 10° NNE
Lacrosse 4 Rocket 1.9 19:47:11 10° SW 19:50:17 50° SW 19:50:17 50° SW
Cosmos 2026 Rocket 4.3 19:47:14 10° SSW 19:53:14 62° WNW 19:59:17 10° N
USA 186 3.8 19:55:51 26° WSW 19:56:18 27° W 19:59:15 10° NW
CSL-04 Rocket 4.4 19:55:05 20° SSW 19:58:36 50° W 20:03:53 10° NNW
ATLAS 2AS CENTAUR R/B 3.8 19:52:38 10° NW 19:59:13 34° NNE 20:01:35 27° NE
MOS 1 4.1 20:01:33 71° SE 20:02:07 80° ENE 20:07:50 10° NNW
Cosmos 1553 Rocket 4.2 19:56:57 10° NNW 20:03:17 72° W 20:06:33 31° S
Landsat 7 4.3 20:04:06 46° SW 20:05:03 55° W 20:09:42 10° NNW
deb Chang Zheng 4 4.0 20:05:56 55° NW 20:05:56 55° NW 20:09:23 10° NNW
Cosmos 1536 Rocket 4.3 20:01:35 10° N 20:04:43 46° N 20:04:43 46° N
SPOT 1/Viking Rocket 3.4 20:07:54 84° NNE 20:07:54 84° NNE 20:12:55 10° NNW
Cosmos 2322 Rocket 2.6 20:02:26 10° SW 20:08:04 62° WNW 20:13:47 10° NNE
NOSS 3-4 (A) 3.8 20:04:07 10° NW 20:10:52 72° NE 20:12:04 61° E
NOSS 3-4 (C) 3.8 20:04:13 10° NW 20:10:59 72° NE 20:12:10 61° E
SPOT 3 Rocket 4.5 20:15:04 36° NNE 20:15:04 36° NNE 20:18:32 10° N
Ariane Rocket 3.5 20:16:26 51° NNE 20:16:26 51° NNE 20:20:23 10° N
NOSS 3-3 (A) 4.3 20:16:05 10° SW 20:30:27 - NE 20:20:03 49° SSW
NOSS 3-3 (C) 4.3 20:16:11 10° SW 20:30:32 - NE 20:19:58 46° SSW
Aureole 1 Rocket 3.9 20:18:47 10° SSW 20:26:06 88° WNW 20:31:48 10° NNE
USA 215 3.8 20:24:15 36° NE 20:26:42 53° N 20:33:00 10° W
USA 281 3.7 20:27:40 46° NE 20:27:40 46° NE 20:33:41 10° NNW
Meteor 1-16 Rocket 4.4 20:30:33 74° NNW 20:30:33 74° NNW 20:35:59 10° N
Cosmos 1844 Rocket 4.3 20:27:59 10° NW 20:32:46 29° WSW 20:34:40 23° SW
Resurs 01 Rocket 3.1 20:38:52 36° NW 20:38:52 36° NW 20:41:55 10° NNW
Cosmos 2315 Rocket 4.1 20:32:12 10° N 20:37:56 72° N 20:37:56 72° N
SL-16 R/B 3.8 20:33:49 10° WSW 20:38:52 32° NW 20:43:59 10° NNE
Terra 3.8 20:42:42 21° N 20:42:42 21° N 20:44:27 10° N
Cosmos 1943 Rocket 3.8 20:35:38 10° NNW 20:38:59 24° NNE 20:38:59 24° NNE
Cosmos 2278 Rocket 3.0 20:43:28 10° NNW 20:47:32 46° N 20:47:32 46° N
Gbstr 26 Del rocket 4.4 20:46:46 10° W 20:54:48 83° N 20:55:06 81° NE
Cosmos 2369 Rocket 4.2 20:55:37 10° N 20:58:48 18° NNE 20:58:48 18° NNE
Cosmos 2333 Rocket 4.1 21:18:32 22° NNE 21:18:32 22° NNE 21:20:34 10° NNE
Cosmos 2360 Rocket 3.8 21:18:22 10° WSW 21:23:21 31° NW 21:28:20 10° NNE
ATLAS 2AS CENTAUR R/B 3.6 21:44:04 10° NW 21:49:00 46° NNW 21:49:00 46° NNW
USA 215 4.4 22:11:37 38° NW 22:11:37 38° NW 22:15:36 10° WNW
Cosmos 1943 Rocket 4.5 22:19:03 10° NNW 22:20:29 19° NNW 22:20:29 19° NNW
